KJ7AZ-3 Weather Reports


time (UTC)temp
F
wind
direction
speed
knots
gust
knots
rain 1hr
in
rain 24hr
in
rain mn
in
humidity
%
barometer
mb
20260906023435 69 111 0.0 0.0 0.00 0.00 0.01
20260906020435 69 111 0.0 0.0 0.00 0.00 0.01
20260906014935 71 111 0.0 0.0 0.00 0.00 0.01
20260906013432 74 111 0.0 0.0 0.00 0.00 0.01
20260906011932 76 111 0.0 0.0 0.00 0.00 0.01
20260906010432 81 111 0.0 0.0 0.00 0.00 0.01
20260906004931 83 153 0.0 1.7 0.00 0.00 0.01
20260906003431 82 51 0.0 0.0 0.00 0.00 0.01
20260906001930 80 136 2.6 1.7 0.00 0.00 0.01
20260905230429 80 128 3.5 3.5 0.00 0.00 0.01
20260905224928 85 53 6.1 2.6 0.00 0.00 0.01
20260905221928 86 83 5.2 5.2 0.01 0.00 0.01
20260905211924 83 51 5.2 4.3 0.00 0.00 0.01
20260905210423 86 332 0.0 0.0 0.00 0.00 0.00
20260905204922 88 260 1.7 0.9 0.00 0.00 0.00
20260905203422 89 8 2.6 1.7 0.00 0.00 0.00
20260905201921 91 319 0.9 1.7 0.00 0.00 0.00
20260905200421 89 321 0.9 2.6 0.00 0.00 0.00
20260905193419 87 342 1.7 3.5 0.00 0.00 0.00
20260905191919 88 34 0.9 0.0 0.00 0.00 0.00
20260905190418 86 335 0.9 3.5 0.00 0.00 0.00
20260905181917 87 359 4.3 5.2 0.00 0.00 0.00
20260905174916 86 330 1.7 0.9 0.00 0.00 0.00
20260905173416 87 235 1.7 2.6 0.00 0.00 0.00
20260905171916 88 13 1.7 2.6 0.00 0.00 0.00
20260905170415 86 248 1.7 0.0 0.00 0.00 0.00
20260905164915 85 10 0.0 0.0 0.00 0.00 0.00
20260905163415 85 359 0.0 0.9 0.00 0.00 0.00
20260905154914 83 297 0.0 0.0 0.00 0.00 0.00
20260905153414 84 314 0.0 0.0 0.00 0.00 0.00
20260905151913 84 284 0.0 0.0 0.00 0.00 0.00
20260905150413 83 256 0.0 0.0 0.00 0.00 0.00
20260905143414 81 107 0.0 0.0 0.00 0.00 0.00
20260905141915 80 107 0.0 0.0 0.00 0.00 0.00
20260905140415 78 107 0.0 0.0 0.00 0.00 0.00
20260905134915 72 107 0.0 0.0 0.00 0.00 0.00
20260905133415 69 107 0.0 0.0 0.00 0.00 0.00
20260905131917 65 107 0.0 0.0 0.00 0.00 0.00
20260905130416 63 107 0.0 0.0 0.00 0.00 0.00
20260905123416 62 107 0.0 0.0 0.00 0.00 0.00
20260905120416 62 107 0.0 0.0 0.00 0.00 0.00
20260905114917 63 107 0.0 0.0 0.00 0.00 0.00
20260905111916 61 107 0.0 0.0 0.00 0.00 0.00
20260905110416 62 107 0.0 0.0 0.00 0.00 0.00
20260905104916 62 107 0.0 0.0 0.00 0.00 0.00
20260905103416 62 107 0.0 0.0 0.00 0.00 0.00
20260905101916 63 107 0.0 0.0 0.00 0.00 0.00
20260905100416 65 107 0.0 0.0 0.00 0.00 0.00
20260905094915 65 107 0.0 0.0 0.00 0.00 0.00
20260905093416 65 107 0.0 0.0 0.00 0.00 0.00
20260905091916 65 107 0.0 0.0 0.00 0.00 0.00
20260905090416 65 107 0.0 0.0 0.00 0.00 0.00
20260905084916 65 107 0.0 0.0 0.00 0.00 0.00
20260905083416 64 107 0.0 0.0 0.00 0.00 0.00
20260905081916 65 107 0.0 0.0 0.00 0.00 0.00
20260905080416 64 107 0.0 0.0 0.00 0.00 0.00
20260905074916 64 107 0.0 0.0 0.00 0.00 0.00
20260905073416 66 69 0.0 2.6 0.00 0.00 0.00
20260905071916 66 174 0.0 0.0 0.00 0.00 0.00
20260905070416 65 174 0.0 0.0 0.00 0.00 0.00
20260905064916 65 174 0.0 0.0 0.00 0.00 0.00
20260905063416 65 174 0.0 0.0 0.00 0.00 0.00
20260905061917 64 174 0.0 0.0 0.00 0.00 0.00
20260905060417 65 174 0.0 0.0 0.00 0.00 0.00
20260905054917 64 174 0.0 0.0 0.00 0.00 0.00
20260905053417 65 174 0.0 0.0 0.00 0.00 0.00
20260905051917 63 174 0.0 0.0 0.00 0.00 0.00
20260905050417 64 174 0.0 0.0 0.00 0.00 0.00
20260905044917 65 174 0.0 0.0 0.00 0.00 0.00
20260905043417 65 174 0.0 0.0 0.00 0.00 0.00
20260905041917 65 174 0.0 0.0 0.00 0.00 0.00
20260905040416 65 174 0.0 0.0 0.00 0.00 0.00
20260905034916 65 174 0.0 0.0 0.00 0.00 0.00
20260905033417 67 174 0.0 0.0 0.00 0.00 0.00
20260905031917 68 174 0.0 0.0 0.00 0.00 0.00
20260905030417 69 174 0.0 0.0 0.00 0.00 0.00